Find OneWeb SL0092

NORAD ID: 45437 Int'l Des: 2020-020 Owner: ONEWEB Country: UK Constellation: oneweb operational
LEOCIRCULARPOLARONEWEB_TYPE

リアルタイム位置

3D地球を読み込み中...

OneWeb SL0092について

説明を読み込み中...

次回通過

Passes for default location (London). Set your location on the main map for personalized predictions.

高度履歴

Loading altitude history...

軌道要素

1 45437U 20020P 26125.44264404 -.00000216 00000-0 -64157-3 0 9998
2 45437 87.8933 29.5641 0001717 89.1501 270.9824 13.11952408297183
Epoch: May 5, 2026 • Age: 7 hours

現在のステータス

高度 1217.6 km
速度 7.25 km/s
衛星直下点 8.78°N, 103.63°W
打ち上げ日 Mar 21, 2020
運用期間 6.1 years
タイプ internet

技術仕様

分類 Payload
質量 148.00 kg
乾燥質量 140.00 kg
総質量 148.00 kg
長さ 1.30 m
直径 1.00 m
スパン 5.00 m
形状 Trapezoid+2 pan
製造者 ONEWUS
バスタイプ ARROW
フェーズステータス In Orbit
所有者/国 ONEWEB/UK

Most Searched